Orbital Elements at Epoch 2459200.5 (2020-Dec-17.0) TDB
Reference: JPL 34 (heliocentric ecliptic J2000)
Element | Value | Uncertainty (1-sigma) | Units |
e | .06630555206054699 | 1.9991e-08 | |
a | 2.786742657983539 | 1.2398e-08 | au |
q | 2.601966147595265 | 6.0346e-08 | au |
i | 5.004619338799931 | 8.0346e-07 | deg |
node | 144.78530116 | 1.0247e-05 | deg |
peri | 179.6422612607342 | 1.6906e-05 | deg |
M | 290.2042996704456 | 1.2199e-05 | deg |
tp | 2459529.935118335235 (2021-Nov-11.43511834) | 5.8083e-05 | TDB |
period | 1699.19697117024 4.65 | 1.1339e-05 3.104e-08 | d yr |
n | .2118647844293575 | 1.4138e-09 | deg/d |
Q | 2.971519168371814 | 1.322e-08 | au |
|
| | Orbit Determination Parameters
Additional Information
|